Le nostre stazioni meteo in Italia

Pubblicità
Il mio iltempo24.it
Edinburgh/Royal Botanic Garden , Gran Bretagna (99180): Temperatura & dewpoint: 30.06.2020 01:00:00 - 06.07.2020 01:00:00 (BST)Edinburgh/Royal Botanic Garden , Gran Bretagna (99180): Temperatura -20cm & Temperatura -100cm: 30.06.2020 01:00:00 - 06.07.2020 01:00:00 (BST)Edinburgh/Royal Botanic Garden , Gran Bretagna (99180): precipitazioni: 30.06.2020 01:00:00 - 06.07.2020 01:00:00 (BST)
Data & Tempo tt [°C] td [°C] tt -20cm [°C] tt -100cm [°C] rr [mm]
06.07.2020 01:00:00 - - - - -
06.07.2020 00:00:00 11,2 7,9 - - 0,0
05.07.2020 23:00:00 11,2 8,0 - - 0,0
05.07.2020 22:00:00 11,6 7,9 - - 0,0
05.07.2020 21:00:00 12,3 8,8 - - 0,0
05.07.2020 20:00:00 13,0 8,8 - - 0,0
05.07.2020 19:00:00 12,1 9,7 - - 0,4
05.07.2020 18:00:00 13,4 9,3 - - 0,4
05.07.2020 17:00:00 13,8 8,1 - - 0,0
05.07.2020 16:00:00 14,5 9,2 - - 0,0
05.07.2020 15:00:00 14,0 9,1 - - 0,0
05.07.2020 14:00:00 15,7 10,3 - - 0,0
05.07.2020 13:00:00 12,6 10,4 - - 0,8
05.07.2020 12:00:00 14,8 9,9 - - 0,2
05.07.2020 11:00:00 15,1 7,4 - - 0,0
05.07.2020 10:00:00 14,3 8,7 16,2 14,2 0,0
05.07.2020 09:00:00 14,0 8,9 - - 0,0
05.07.2020 08:00:00 14,3 9,8 - - 0,0
05.07.2020 07:00:00 13,8 10,0 - - 0,0
05.07.2020 06:00:00 13,5 10,2 - - 0,0
05.07.2020 05:00:00 13,4 10,1 - - 0,0
05.07.2020 04:00:00 13,7 10,8 - - 0,0
05.07.2020 03:00:00 15,0 13,7 - - 0,4
05.07.2020 02:00:00 15,3 14,4 - - 0,6
05.07.2020 01:00:00 15,4 14,4 - - 1,4
05.07.2020 00:00:00 15,1 14,3 - - 1,0
04.07.2020 23:00:00 13,8 12,8 - - 0,6
04.07.2020 22:00:00 14,0 12,0 - - 0,4
04.07.2020 21:00:00 14,5 11,6 - - 0,2
04.07.2020 20:00:00 15,3 11,0 - - 0,0
04.07.2020 19:00:00 16,0 11,1 - - 0,0
04.07.2020 18:00:00 15,1 10,7 - - 0,0
04.07.2020 17:00:00 16,0 11,0 - - 0,0
04.07.2020 16:00:00 17,1 13,1 - - 0,0
04.07.2020 15:00:00 14,6 11,6 - - 0,0
04.07.2020 14:00:00 14,5 12,6 - - 0,0
04.07.2020 13:00:00 13,4 11,5 - - 0,2
04.07.2020 12:00:00 13,4 10,9 - - 0,2
04.07.2020 11:00:00 13,5 10,2 - - 0,0
04.07.2020 10:00:00 14,2 9,7 15,9 14,2 0,0
04.07.2020 09:00:00 13,4 9,8 - - 0,0
04.07.2020 08:00:00 12,5 9,8 - - 0,0
04.07.2020 07:00:00 11,3 10,4 - - 0,0
04.07.2020 06:00:00 10,1 9,4 - - 0,0
04.07.2020 05:00:00 10,1 9,5 - - 0,0
04.07.2020 04:00:00 9,8 9,1 - - 0,0
04.07.2020 03:00:00 10,1 9,4 - - 0,0
04.07.2020 02:00:00 9,9 9,2 - - 0,0
04.07.2020 01:00:00 9,7 9,0 - - 0,0
04.07.2020 00:00:00 9,8 9,0 - - 0,0
03.07.2020 23:00:00 10,2 9,0 - - 0,0
03.07.2020 22:00:00 11,6 10,0 - - 0,0
03.07.2020 21:00:00 12,3 10,6 - - 0,0
03.07.2020 20:00:00 12,8 11,3 - - 0,0
03.07.2020 19:00:00 13,3 12,2 - - 0,4
03.07.2020 18:00:00 13,3 12,3 - - 1,2
03.07.2020 17:00:00 13,9 12,7 - - 1,6
03.07.2020 16:00:00 15,3 14,1 - - 0,2
03.07.2020 15:00:00 15,4 14,1 - - 0,6
03.07.2020 14:00:00 15,1 13,8 - - 0,4
03.07.2020 13:00:00 14,8 13,1 - - 0,2
03.07.2020 12:00:00 14,6 12,8 - - 0,0
03.07.2020 11:00:00 14,5 13,0 - - 0,2
03.07.2020 10:00:00 13,3 12,5 16,5 14,4 0,6
03.07.2020 09:00:00 11,6 10,9 - - 1,2
03.07.2020 08:00:00 10,7 10,0 - - 1,0
03.07.2020 07:00:00 10,1 9,2 - - 1,2
03.07.2020 06:00:00 9,6 8,7 - - 1,0
03.07.2020 05:00:00 9,6 8,2 - - 0,6
03.07.2020 04:00:00 9,8 7,6 - - 0,2
03.07.2020 03:00:00 10,3 7,9 - - 0,2
03.07.2020 02:00:00 11,2 6,8 - - 0,0
03.07.2020 01:00:00 11,3 6,4 - - 0,0
03.07.2020 00:00:00 11,8 6,2 - - 0,0
02.07.2020 23:00:00 12,2 6,7 - - 0,0
02.07.2020 22:00:00 13,6 7,4 - - 0,0
02.07.2020 21:00:00 14,9 8,3 - - 0,0
02.07.2020 20:00:00 15,8 7,9 - - 0,0
02.07.2020 19:00:00 16,3 8,9 - - 0,0
02.07.2020 18:00:00 16,3 8,0 - - 0,0
02.07.2020 17:00:00 16,2 7,7 - - 0,0
02.07.2020 16:00:00 16,2 7,6 - - 0,0
02.07.2020 15:00:00 15,4 7,4 - - 0,0
02.07.2020 14:00:00 15,2 8,1 - - 0,0
02.07.2020 13:00:00 14,5 8,1 - - 0,0
02.07.2020 12:00:00 14,1 7,8 - - 0,0
02.07.2020 11:00:00 13,6 7,6 - - 0,0
02.07.2020 10:00:00 13,6 7,4 16,2 14,4 0,0
02.07.2020 09:00:00 13,1 7,1 - - 0,0
02.07.2020 08:00:00 12,1 7,7 - - 0,0
02.07.2020 07:00:00 11,4 7,2 - - 0,0
02.07.2020 06:00:00 11,1 7,6 - - 0,0
02.07.2020 05:00:00 10,7 7,5 - - 0,0
02.07.2020 04:00:00 11,0 7,2 - - 0,0
02.07.2020 03:00:00 11,3 6,3 - - 0,0
02.07.2020 02:00:00 10,8 7,1 - - 0,0
02.07.2020 01:00:00 10,9 7,6 - - 0,0
02.07.2020 00:00:00 11,4 6,8 - - 0,0
01.07.2020 23:00:00 11,7 6,5 - - 0,0
01.07.2020 22:00:00 11,8 6,9 - - 0,0
01.07.2020 21:00:00 12,1 6,8 - - 0,0
01.07.2020 20:00:00 12,2 6,9 - - 0,0
01.07.2020 19:00:00 12,5 7,7 - - 0,0
01.07.2020 18:00:00 12,7 7,7 - - 0,0
01.07.2020 17:00:00 13,0 8,4 - - 0,0
01.07.2020 16:00:00 12,9 8,9 - - 0,0
01.07.2020 15:00:00 12,4 9,8 - - 0,0
01.07.2020 14:00:00 12,0 9,9 - - 0,0
01.07.2020 13:00:00 11,7 10,6 - - 0,0
01.07.2020 12:00:00 11,6 10,7 - - 0,4
01.07.2020 11:00:00 12,1 11,3 - - 0,2
01.07.2020 10:00:00 12,1 11,2 16,9 14,5 0,0
01.07.2020 09:00:00 11,8 11,0 - - 0,4
01.07.2020 08:00:00 12,0 11,2 - - 4,0
01.07.2020 07:00:00 12,5 11,2 - - 0,0
01.07.2020 06:00:00 12,2 11,1 - - 0,0
01.07.2020 05:00:00 11,5 10,9 - - 0,0
01.07.2020 04:00:00 10,8 10,0 - - 0,0
01.07.2020 03:00:00 11,0 10,0 - - 0,0
01.07.2020 02:00:00 11,6 10,2 - - 0,0
01.07.2020 01:00:00 12,3 10,6 - - 0,0
01.07.2020 00:00:00 12,6 10,5 - - 0,0
30.06.2020 23:00:00 13,1 10,1 - - 0,0
30.06.2020 22:00:00 14,8 10,5 - - 0,0
30.06.2020 21:00:00 15,7 11,8 - - 0,0
30.06.2020 20:00:00 15,4 12,3 - - 0,0
30.06.2020 19:00:00 15,9 12,6 - - 0,0
30.06.2020 18:00:00 16,6 11,9 - - 0,0
30.06.2020 17:00:00 17,0 11,3 - - 0,0
30.06.2020 16:00:00 17,6 10,5 - - 0,0
30.06.2020 15:00:00 19,6 12,6 - - 0,0
30.06.2020 14:00:00 18,3 11,2 - - 0,0
30.06.2020 13:00:00 18,3 11,5 - - 0,0
30.06.2020 12:00:00 16,4 10,5 - - 0,0
30.06.2020 11:00:00 16,4 11,0 - - 0,0
30.06.2020 10:00:00 15,7 11,5 16,5 14,5 0,0
30.06.2020 09:00:00 15,3 11,1 - - 0,0
30.06.2020 08:00:00 14,7 11,0 - - 0,0
30.06.2020 07:00:00 12,9 10,1 - - 0,0
30.06.2020 06:00:00 12,3 9,9 - - 0,0
30.06.2020 05:00:00 12,1 9,7 - - 0,0
30.06.2020 04:00:00 11,9 9,8 - - 0,0
30.06.2020 03:00:00 12,0 9,9 - - 0,0
30.06.2020 02:00:00 12,4 10,2 - - 0,0
30.06.2020 01:00:00 12,5 10,0 - - 0,0

tt = Temperatura
td = dewpoint
tt -20cm = Temperatura -20cm
tt -100cm = Temperatura -100cm
rr = precipitazioni

Stazioni seguenti

WeatherPro
AMSI
MeteoEarth